RH
89 87 90 90 90 86 78 71 63 60 56 55 57 57 56 54 53 53 54 53 52 52 49 47 45 39 32 27 24 21 21 21 21 20 19 19 19 19 20 22 20 21 24 23 20 19 20 23 25 27 32 33 33 39 42 40 35 35 37 33 30 28 26 26 29 31 32 33 32 33 32 32 32 31 29 28 30 31 31 29 25 23 23 25 27
86 84 83 87 87 82 80 75 63 54 47 46 50 49 47 47 48 51 52 52 53 51 48 45 40 33 28 24 23 21 21 21 21 20 20 20 20 22 24 24 23 24 25 24 24 23 23 23 24 28 32 30 31 39 40 39 33 31 36 35 30 26 25 23 24 26 28 29 28 29 30 29 30 28 24 23 25 29 33 32 29 26 25 26 28
87 86 84 83 75 69 68 66 62 53 43 40 43 43 42 44 46 50 52 53 51 49 45 40 34 29 25 24 23 21 21 21 21 21 21 20 21 26 26 26 25 24 24 26 27 27 27 28 29 30 32 27 25 28 30 35 35 29 31 35 32 26 23 21 21 22 22 23 23 23 24 25 26 24 20 20 22 26 32 35 33 30 28 28 30
82 84 82 74 60 56 55 57 60 54 44 39 40 41 42 43 45 50 50 49 47 44 40 34 30 27 25 24 23 23 23 23 23 23 22 22 24 27 27 25 23 23 25 27 27 29 32 34 35 33 31 27 24 25 28 36 39 35 31 33 33 28 24 22 19 19 20 18 18 18 18 20 21 20 18 18 20 22 28 35 37 35 33 32 33
70 73 68 55 49 51 51 56 60 56 46 37 40 42 43 44 45 47 45 43 41 38 34 31 30 28 27 26 26 26 27 27 26 26 25 25 25 27 27 26 25 25 25 26 26 29 33 37 38 37 33 29 29 32 34 34 34 37 37 38 35 30 26 25 20 19 24 19 14 15 14 15 16 17 17 17 18 20 23 30 37 39 38 36 36
55 56 51 43 45 47 51 53 47 50 48 36 38 42 42 40 40 41 39 37 36 33 31 30 29 29 29 28 28 30 31 31 30 29 28 27 27 27 27 26 26 25 25 25 26 30 34 38 41 40 38 31 30 31 32 32 30 32 37 44 41 32 28 27 24 23 26 20 13 13 13 13 13 14 15 16 17 18 21 26 33 38 40 39 36
47 43 40 39 41 40 41 42 34 39 45 37 34 38 38 34 33 33 32 31 29 27 27 27 26 27 28 27 28 30 32 31 29 28 27 25 26 27 27 27 26 26 27 27 27 31 33 37 42 41 39 33 29 29 28 34 38 34 35 44 44 36 33 28 26 27 23 16 13 12 12 12 11 11 12 14 16 17 21 25 28 31 36 39 37
39 34 33 33 35 33 30 31 30 32 36 33 29 32 34 29 27 26 24 23 21 20 21 21 22 22 24 25 26 29 29 28 26 24 24 22 24 27 28 29 27 28 30 31 30 30 31 36 41 40 39 36 35 34 31 36 42 39 38 44 46 43 40 32 27 29 24 14 12 12 12 12 10 10 10 10 13 16 19 22 24 25 28 32 34
25 23 23 25 26 26 23 23 25 31 34 29 25 28 28 23 20 18 16 15 14 16 18 19 19 21 23 25 26 27 26 24 21 20 20 20 25 28 29 30 29 29 30 32 34 33 34 37 40 39 39 38 41 43 40 43 47 42 38 39 42 44 45 38 30 31 27 18 14 12 13 12 10 10 10 9 9 12 16 18 21 23 23 26 28
24 22 21 20 18 18 19 19 19 27 32 28 25 23 22 18 14 12 12 13 15 17 18 20 22 26 28 29 28 26 24 22 19 18 18 20 27 33 32 30 30 30 30 32 36 37 38 39 38 39 41 41 41 42 43 48 52 46 41 38 36 41 46 40 32 32 30 22 16 14 14 13 12 12 12 10 9 9 12 15 18 21 21 22 25
19 17 15 14 12 14 14 16 16 21 26 25 24 20 16 13 11 13 17 19 21 22 22 24 28 31 34 34 33 31 29 26 23 19 17 19 26 37 38 36 36 32 33 35 37 42 45 45 39 38 42 45 43 40 37 40 47 45 44 45 41 45 49 42 34 31 31 26 19 18 17 15 13 13 13 12 10 8 9 12 14 17 20 21 23
12 9 8 8 9 11 11 12 13 17 21 19 18 15 12 12 16 22 26 27 29 29 29 31 33 36 40 41 42 43 42 39 34 28 24 26 32 45 50 49 44 34 41 46 44 50 55 53 43 37 39 42 45 43 35 31 39 40 40 46 44 48 48 44 40 36 34 27 24 24 21 17 14 15 15 15 12 10 9 10 12 13 17 19 21
13 11 9 7 8 10 10 10 10 13 16 13 12 12 13 18 26 29 31 34 36 37 37 37 36 38 44 47 51 53 53 51 48 44 41 44 49 56 58 58 52 45 57 58 51 58 64 58 46 39 37 40 41 42 40 33 34 33 37 44 44 46 45 47 50 48 47 38 32 31 27 20 15 15 17 18 15 12 10 9 10 11 13 16 19
17 16 11 8 11 12 11 9 8 9 10 10 12 14 19 26 29 29 32 36 38 41 42 39 38 39 45 49 55 57 56 54 53 54 56 59 62 64 64 64 62 60 64 61 57 63 63 53 43 39 43 49 44 38 41 41 38 33 34 40 40 44 46 51 57 60 63 57 45 37 34 28 19 15 16 20 21 15 12 10 9 10 11 12 15
21 20 15 12 13 13 10 6 7 8 10 13 17 21 24 26 25 27 32 34 35 42 44 42 41 41 44 46 51 57 56 54 55 59 63 64 60 60 61 61 61 61 61 61 63 63 57 49 44 47 55 62 53 41 41 44 47 46 45 44 39 42 46 48 53 60 65 63 57 46 40 37 32 25 18 18 23 22 16 13 11 10 11 12 13
26 23 21 18 15 13 8 6 8 9 14 19 23 25 24 23 23 27 28 28 32 41 46 45 43 41 43 45 47 52 54 53 53 56 58 54 49 47 49 51 54 55 55 58 63 61 57 54 57 66 68 65 56 49 47 47 54 58 61 60 49 42 44 47 48 51 53 54 56 54 49 45 44 41 34 24 20 25 24 17 14 12 12 12 14
28 26 25 21 16 11 6 7 11 14 20 24 25 24 22 23 25 26 22 22 28 37 45 45 43 41 43 44 44 45 46 47 47 48 48 46 45 45 46 52 59 60 57 58 62 64 63 63 66 68 66 64 63 60 53 50 55 59 63 65 59 51 47 50 53 50 47 46 49 52 54 53 50 48 49 44 26 21 26 24 18 14 13 14 15
28 26 25 19 14 9 6 10 15 20 25 27 26 24 22 23 25 22 17 20 26 33 40 41 42 41 42 44 44 43 42 42 43 42 42 42 41 41 44 52 62 66 67 65 65 65 63 56 46 38 39 44 51 51 44 42 47 50 54 57 58 58 55 56 59 59 56 54 54 54 57 60 59 53 53 59 44 22 22 26 24 20 15 15 16
24 23 20 15 13 8 8 15 19 22 24 25 24 23 22 23 23 19 17 23 29 34 39 41 42 41 39 37 36 34 33 30 27 26 26 26 26 27 31 40 51 60 65 62 54 46 37 27 19 21 27 35 42 44 40 39 43 45 50 54 57 60 61 64 68 72 70 67 65 61 60 60 61 60 59 67 57 31 21 23 25 25 21 18 18
19 21 18 15 12 7 12 19 20 18 16 16 18 20 21 23 22 18 21 28 33 38 40 39 37 33 30 25 21 18 16 12 9 10 9 10 10 12 17 24 32 38 41 35 25 16 13 13 15 20 26 35 46 52 51 49 47 49 53 55 57 61 62 65 69 72 72 70 69 67 67 66 63 60 62 71 67 46 29 23 24 26 25 23 21
16 19 18 18 12 9 18 21 17 13 11 12 14 17 19 22 21 19 24 30 34 36 35 32 29 24 19 15 13 10 8 6 3 3 3 4 3 5 7 9 12 13 12 9 7 7 11 13 12 14 13 20 33 41 44 48 50 49 50 49 50 55 56 56 57 60 64 64 62 60 61 66 68 65 64 68 72 66 45 27 23 23 26 27 25
14 16 19 20 12 13 22 22 15 11 13 15 16 18 20 21 20 20 24 28 29 30 28 25 21 17 14 14 15 15 14 13 9 5 4 3 5 9 9 7 7 8 7 6 6 9 12 11 10 12 8 7 13 21 24 29 36 33 29 28 28 31 33 33 34 38 45 49 52 53 54 58 63 67 68 65 66 72 59 37 27 22 22 25 26
14 13 17 18 12 15 24 23 16 14 17 19 20 19 20 21 19 19 23 27 27 25 23 21 18 16 18 21 23 20 18 22 24 22 17 14 16 19 20 17 13 13 13 10 8 8 8 8 10 9 7 8 8 12 15 14 16 14 11 10 9 10 11 12 12 15 17 20 27 34 41 46 52 58 66 66 62 62 54 42 37 32 25 22 23
14 13 15 14 12 17 23 21 14 15 20 21 21 20 19 21 19 18 19 23 27 25 22 20 20 18 19 21 20 17 15 19 24 25 23 23 22 21 23 21 16 17 15 10 7 5 6 7 7 4 4 10 9 7 9 7 7 6 7 6 6 7 6 7 6 7 6 6 9 11 16 22 32 44 57 65 64 62 54 46 41 38 34 28 23
13 15 15 11 13 18 20 18 14 16 20 22 21 20 20 21 18 17 16 18 22 22 18 15 14 13 13 13 13 15 15 13 15 19 20 25 29 32 34 28 23 21 15 19 19 10 13 11 7 15 16 10 7 7 7 6 7 6 6 7 7 7 7 8 7 7 7 7 7 7 8 7 11 24 44 60 65 64 63 61 56 49 42 35 29
17 17 13 12 15 19 18 15 14 16 20 24 24 21 21 20 18 17 16 15 14 13 10 7 6 7 8 8 8 10 11 12 19 24 20 20 26 33 36 27 20 14 11 29 32 15 14 17 18 31 30 15 7 8 9 8 8 8 8 8 8 8 8 9 9 8 8 8 8 9 9 9 8 10 26 50 65 67 63 62 65 65 59 49 40
21 16 12 15 16 15 14 13 17 17 16 22 26 25 22 20 19 17 15 12 10 8 5 3 3 3 5 11 14 13 12 13 19 23 21 19 15 16 19 14 13 11 8 17 21 11 10 22 31 28 18 12 10 10 10 10 11 10 10 10 10 10 10 10 10 10 9 9 9 9 9 9 10 8 12 29 49 64 67 62 63 69 74 73 65
20 14 12 13 13 12 11 13 19 18 13 16 19 21 21 19 17 14 11 9 7 5 2 2 2 2 4 13 19 17 15 10 8 13 21 23 16 11 10 11 13 12 11 9 9 10 9 17 25 17 9 10 11 10 11 11 12 12 12 13 12 12 12 12 11 11 10 10 9 9 10 10 10 9 8 12 24 42 57 62 67 73 80 85 86
17 12 11 11 12 12 10 13 18 17 15 15 14 14 15 15 15 11 8 6 4 3 2 1 2 4 6 11 16 16 16 12 7 8 11 15 15 11 8 13 17 14 14 13 11 12 12 13 13 11 10 11 10 11 12 12 12 13 13 13 13 14 13 13 12 12 11 10 11 9 9 10 10 9 8 8 13 25 37 48 60 69 73 77 83
13 9 10 9 11 11 9 12 16 16 16 18 17 13 10 10 11 9 6 3 2 2 3 6 8 11 12 14 16 15 14 12 12 11 6 7 9 9 8 11 16 15 15 14 12 14 13 12 12 11 10 10 11 11 11 11 12 12 13 13 14 14 14 14 14 13 12 11 11 11 10 10 10 9 9 8 10 16 26 35 45 50 53 57 64
9 8 9 7 9 11 10 10 13 15 16 20 20 14 9 7 8 7 5 3 3 4 6 10 15 17 15 15 15 15 15 10 12 13 7 6 7 8 9 9 11 14 15 12 11 12 11 10 11 11 10 10 10 10 10 10 11 12 12 13 14 14 14 15 15 14 13 12 12 11 11 11 10 10 9 10 10 11 15 24 32 33 32 35 42
6 7 7 7 11 14 16 16 17 20 21 20 16 11 8 5 6 6 5 5 6 7 7 9 11 15 16 14 13 15 17 13 12 13 8 8 10 8 8 10 9 10 13 12 10 9 9 11 10 8 9 9 9 10 10 10 10 11 11 12 13 14 14 14 15 15 13 13 13 12 12 12 11 11 11 11 11 11 12 14 19 21 20 20 24
5 6 7 10 15 19 21 22 23 24 23 17 10 8 7 4 5 4 5 6 6 6 6 6 7 11 17 18 15 14 17 17 16 14 10 9 10 8 8 9 8 10 14 15 15 12 10 11 11 9 8 8 8 8 8 9 9 10 10 11 12 13 14 15 15 15 14 14 13 12 12 12 11 11 12 12 12 12 13 12 13 14 15 15 18
4 6 8 12 15 16 16 18 20 21 19 13 7 7 6 5 5 4 5 6 5 6 4 5 6 9 17 20 18 16 17 18 18 16 11 10 10 8 8 8 7 9 13 14 14 12 10 10 9 8 8 8 9 8 7 8 8 9 9 9 10 11 13 15 15 16 15 15 14 14 12 12 12 12 11 12 12 13 13 13 13 13 14 14 17
5 6 10 12 12 12 11 12 15 16 13 9 7 5 4 5 5 4 5 4 4 5 4 5 5 9 17 19 17 16 17 18 18 15 11 10 10 9 8 7 7 7 9 11 11 9 9 9 7 6 6 7 8 9 8 7 6 7 8 8 9 10 12 13 15 15 15 15 15 15 14 13 12 12 12 12 12 13 14 14 13 13 13 14 16
6 7 10 10 10 9 8 8 9 10 9 8 8 6 5 4 4 4 3 3 3 4 7 8 7 10 15 14 14 14 14 16 14 11 9 8 8 8 8 7 7 7 8 12 15 13 10 9 8 6 5 5 6 9 10 8 6 6 7 8 8 8 10 12 13 14 15 15 15 15 15 15 14 13 13 13 13 12 13 13 13 13 13 14 15
6 7 8 8 9 7 6 6 6 7 6 7 7 7 7 5 3 2 1 1 3 5 7 9 9 12 13 10 10 10 9 11 10 9 9 10 10 8 7 7 7 7 8 13 18 18 14 9 7 6 5 5 5 6 9 9 6 6 7 7 8 8 9 11 12 13 14 14 14 14 14 15 15 14 15 14 13 13 13 13 13 13 14 14 14
5 5 7 8 7 5 5 5 5 6 6 6 6 6 7 7 5 2 1 1 3 8 10 10 13 15 17 18 12 8 9 11 11 11 13 13 11 8 7 6 7 8 10 15 18 18 15 11 7 6 5 5 5 5 7 8 7 6 7 7 8 8 9 10 11 12 12 13 13 12 13 14 15 15 16 15 15 14 14 14 13 14 14 14 14
4 4 6 6 5 5 4 5 5 6 5 5 5 5 5 5 4 2 2 2 3 12 15 16 16 14 17 20 13 10 11 11 10 9 9 9 7 6 6 6 6 8 10 14 17 16 14 11 8 7 6 5 5 5 5 7 8 7 6 7 8 8 8 9 10 11 11 11 12 12 12 13 13 14 15 16 16 15 14 14 14 14 14 14 14
3 4 5 5 5 5 4 4 5 4 4 4 3 4 4 3 3 3 2 2 4 11 15 16 16 13 14 14 10 11 10 7 6 5 5 6 6 6 6 6 6 7 7 8 11 13 12 10 9 8 8 7 6 6 6 6 6 7 7 7 8 8 8 8 10 11 11 11 11 12 12 13 13 13 14 15 16 15 15 14 14 14 14 14 14
4 4 5 5 4 4 4 3 4 4 3 3 3 3 4 4 3 3 3 2 5 8 9 9 10 12 13 10 7 10 8 6 6 6 6 6 7 8 9 8 8 8 8 7 7 9 8 8 8 8 8 8 7 6 6 5 6 6 7 7 7 8 8 9 9 11 11 11 11 11 11 12 13 13 13 13 14 15 15 14 14 14 14 14 14
3 3 3 4 3 3 3 3 3 3 3 2 3 3 4 5 3 3 3 2 4 6 5 5 7 11 11 8 6 8 7 7 7 7 7 7 6 8 10 11 13 14 14 12 11 9 9 8 8 8 8 8 9 8 7 6 5 5 7 7 7 8 9 9 9 10 11 11 11 11 12 12 13 13 12 12 12 13 14 14 14 14 14 14 14
2 2 3 3 3 3 3 4 3 3 4 5 5 4 4 4 3 3 2 3 3 4 5 4 5 7 7 6 7 7 7 7 7 7 7 6 6 8 11 14 19 22 21 19 17 16 14 13 12 11 11 11 11 9 7 7 6 5 5 7 7 7 8 9 10 10 11 12 12 11 12 13 13 13 13 12 12 12 13 13 13 14 14 14 14
2 2 3 3 3 3 3 4 4 4 4 6 6 6 5 4 4 3 2 3 3 4 6 6 5 6 7 7 7 7 7 7 7 8 7 7 9 10 13 20 25 25 22 20 21 21 21 19 18 16 15 14 13 11 9 7 7 7 5 6 7 8 8 9 10 10 11 12 13 12 12 13 13 14 14 13 13 12 13 13 13 14 14 14 14
3 2 2 3 3 3 3 3 3 3 3 3 4 4 5 4 4 3 3 3 3 4 5 5 7 8 8 7 6 7 7 7 8 8 9 11 14 15 20 26 27 24 21 21 22 23 24 24 24 23 20 18 15 12 10 9 8 7 6 6 6 7 8 9 9 10 11 11 12 12 12 12 13 13 14 14 14 13 13 13 13 13 14 14 13
3 3 2 2 3 2 3 2 2 2 2 2 2 2 4 4 3 3 3 3 3 4 4 4 6 6 6 5 6 7 7 8 8 9 12 17 21 23 27 28 26 24 23 23 25 27 29 30 29 28 26 25 22 17 11 8 8 8 7 6 6 7 8 8 9 10 10 11 11 11 11 11 12 13 13 13 14 14 14 14 14 14 14 14 13
3 3 2 2 2 2 2 2 2 2 2 2 2 2 3 3 3 3 3 3 4 4 4 4 4 4 5 5 6 6 7 8 9 11 17 25 28 28 28 26 25 25 24 25 28 32 34 34 31 27 25 27 28 27 22 13 7 7 8 7 6 7 8 8 9 9 10 10 10 11 11 11 11 11 12 12 13 14 14 14 14 15 14 14 14
2 1 2 2 2 3 3 3 3 3 2 3 2 3 4 3 3 3 3 3 4 5 5 4 4 5 6 6 6 7 8 9 9 15 25 31 31 27 25 24 23 22 22 26 31 37 41 41 39 35 33 33 32 31 30 26 17 9 7 8 7 6 7 8 9 9 10 10 10 10 11 12 12 12 12 12 12 12 13 14 14 14 15 15 15
2 2 2 2 2 2 3 3 4 4 4 4 4 3 4 5 4 4 4 4 4 5 5 5 5 5 6 7 7 8 10 10 12 22 32 31 25 22 23 25 27 28 29 31 36 43 50 55 56 55 56 58 56 49 39 34 31 22 11 7 8 8 7 8 9 9 10 10 10 11 10 11 12 12 13 13 13 12 12 13 14 14 15 15 16
5 4 4 4 5 7 8 8 6 6 4 4 6 6 5 5 5 5 5 5 5 5 6 6 6 6 7 7 8 10 11 12 20 30 30 24 22 28 37 46 51 53 51 49 47 48 53 59 63 65 68 71 72 70 61 46 38 35 26 13 7 8 7 8 9 10 11 11 10 11 11 11 12 12 12 13 13 13 13 13 13 15 15 16 17
15 13 11 10 12 17 21 22 21 19 15 9 5 5 6 6 5 6 6 6 6 6 7 7 7 7 7 7 10 12 11 17 28 30 24 24 34 47 59 66 65 60 58 58 59 60 60 60 63 67 72 75 77 81 82 68 48 37 34 25 13 8 8 8 9 9 10 11 11 11 11 11 11 11 12 12 13 14 14 14 13 14 16 16 16
Wind_Speed
20 20 19 19 20 18 17 19 19 16 14 12 12 11 11 10 10 9 8 7 7 7 6 6 6 6 6 6 5 5 5 6 7 7 8 9 7 6 6 7 8 8 8 9 9 8 8 9 8 7 7 7 7 8 8 8 9 10 10 10 10 9 9 9 9 8 8 7 7 7 7 8 8 8 8 8 9 9 9 8 8 8 8 8 8
20 19 19 19 17 15 13 14 16 16 15 13 12 12 11 11 10 9 8 7 7 7 6 6 6 6 6 5 5 5 6 6 7 8 9 8 7 6 7 8 8 8 8 9 9 8 8 8 7 7 6 6 7 7 8 8 8 9 9 9 9 9 9 9 9 9 8 7 8 7 7 8 8 8 7 8 9 9 9 9 9 9 9 9 8
20 18 18 18 16 14 13 12 13 15 15 15 13 12 11 11 10 9 8 7 7 7 7 7 7 6 6 5 4 5 6 6 8 9 8 7 6 6 7 7 8 8 8 8 8 8 8 8 7 7 6 6 7 7 7 7 8 8 8 8 8 8 8 8 8 9 8 8 8 9 8 8 8 7 7 8 8 9 9 10 10 10 10 9 9
21 19 18 16 14 14 14 13 13 14 15 15 14 13 11 11 10 9 8 7 7 7 8 7 7 6 5 5 4 5 6 7 8 8 7 7 6 6 6 7 8 8 7 7 8 8 8 8 8 6 6 6 6 7 7 7 7 7 7 7 7 6 7 7 7 8 8 8 9 9 9 8 8 7 7 8 8 9 9 9 10 10 10 10 10
20 19 17 15 14 15 15 13 12 11 13 14 14 13 11 11 10 9 8 8 8 8 8 7 6 6 5 4 4 5 6 7 7 7 6 6 6 5 6 7 8 8 7 7 8 8 8 9 8 6 5 5 6 7 6 6 5 5 5 6 5 5 6 6 6 6 7 7 8 9 9 8 8 7 7 7 7 8 8 8 8 9 9 10 10
19 18 16 14 14 14 14 13 11 11 12 13 14 13 11 10 10 10 9 8 8 8 7 6 6 6 5 4 4 6 6 6 7 6 6 6 5 5 6 7 7 7 7 7 8 8 8 9 8 7 6 5 5 6 5 5 5 5 5 5 4 4 4 5 5 5 6 6 7 8 8 8 7 6 6 6 6 7 8 7 7 7 8 8 9
16 15 15 14 14 14 13 12 11 11 11 12 13 13 11 10 10 9 9 7 6 6 6 6 5 5 5 4 5 5 6 6 6 6 5 5 5 5 6 6 7 7 7 8 8 8 9 8 8 8 7 5 5 5 4 4 5 5 5 5 4 3 2 3 3 5 6 5 6 7 7 7 6 6 5 5 6 6 6 6 6 5 7 7 7
14 14 15 15 14 14 13 12 10 10 11 11 12 12 10 9 9 8 7 6 5 5 5 5 5 5 5 6 6 6 6 6 6 5 5 5 5 6 6 6 6 7 7 7 7 8 9 7 7 8 7 5 5 6 5 5 5 5 5 5 4 3 3 2 2 3 5 4 5 5 5 6 5 5 5 5 5 5 5 5 4 4 4 5 5
16 15 15 14 13 13 12 11 10 10 11 11 11 12 10 7 8 7 6 6 5 5 5 6 6 6 7 7 6 6 6 6 5 5 6 6 6 6 6 6 6 7 7 7 7 8 8 7 6 8 7 5 5 5 5 5 6 5 4 4 4 3 2 2 2 2 3 3 4 4 4 4 4 4 5 5 4 4 3 3 3 3 2 3 4
15 14 14 13 12 11 10 10 10 11 11 11 11 11 9 8 8 8 7 6 6 6 6 6 7 8 8 8 7 7 6 6 6 5 6 6 6 7 6 6 7 7 7 6 7 7 7 6 6 7 7 5 4 4 3 4 5 4 4 5 5 3 1 2 2 2 2 3 3 4 3 2 3 3 5 5 3 3 2 2 2 2 1 1 2
15 14 13 12 11 10 9 9 10 10 10 10 11 10 9 8 9 9 7 6 7 7 7 7 8 9 9 9 8 8 7 7 6 5 5 5 6 6 5 6 7 7 6 6 6 6 6 6 6 7 7 5 3 3 3 3 3 3 4 5 5 3 2 3 3 2 2 3 3 3 3 2 3 3 4 4 3 2 3 2 2 1 0 0 0
15 14 12 12 11 9 9 9 9 10 10 10 11 10 9 9 10 9 8 7 8 8 8 8 8 9 10 10 10 9 8 7 6 5 4 5 5 4 4 6 7 6 6 5 5 6 6 5 5 6 6 5 3 3 3 3 3 3 4 5 6 4 4 3 3 2 2 3 3 3 4 4 4 3 4 4 3 1 3 3 2 1 1 0 0
13 12 12 12 11 9 8 8 9 9 10 11 11 11 10 10 10 9 9 9 9 9 8 8 9 10 11 11 11 10 9 7 7 6 5 5 5 5 5 6 7 5 4 4 4 4 5 4 4 5 5 5 3 2 2 3 3 3 4 4 6 4 4 3 4 3 2 1 1 2 3 4 5 5 4 4 3 1 2 3 3 2 1 1 1
11 10 11 11 10 9 8 8 9 10 11 12 12 11 11 10 11 10 9 9 10 10 9 9 9 11 12 13 12 10 9 9 8 8 7 7 7 8 7 8 8 6 4 3 3 3 4 4 4 4 5 4 2 1 1 2 2 2 3 4 5 4 3 3 4 4 3 1 2 1 1 2 5 6 5 5 4 2 1 2 3 2 2 1 1
9 9 9 10 10 9 8 8 9 11 13 12 12 12 11 11 11 10 10 10 11 11 10 10 10 11 13 13 12 11 10 10 10 9 9 9 10 10 10 9 9 7 5 3 3 4 4 4 5 5 4 3 1 1 1 1 2 2 3 4 4 3 2 2 3 2 3 2 1 1 1 1 2 4 5 5 4 3 2 1 3 3 2 1 1
8 7 8 9 9 9 8 9 10 12 13 13 12 12 12 12 11 10 10 11 11 11 11 10 10 12 13 13 12 11 11 11 10 9 9 10 10 10 10 9 8 7 6 5 5 6 5 5 6 5 5 4 2 2 2 2 2 3 4 5 4 3 2 1 2 2 1 1 1 1 2 2 2 2 3 3 3 2 2 1 2 3 3 2 2
7 7 8 9 9 9 9 9 11 12 13 12 12 12 12 11 10 10 11 12 12 11 11 11 11 12 14 14 13 12 11 10 9 9 8 9 9 10 10 9 9 9 8 8 8 8 7 6 6 5 6 5 3 3 4 4 4 4 4 5 5 4 3 2 1 1 2 3 3 3 3 4 5 4 4 3 1 1 1 1 1 2 3 3 3
6 7 8 9 8 9 10 10 12 12 12 11 10 10 10 10 10 11 12 12 12 12 12 11 12 13 15 15 13 12 11 10 9 9 9 9 10 11 11 10 10 11 10 9 9 9 8 7 7 6 6 5 4 3 4 4 5 5 4 4 4 4 4 4 4 3 2 3 4 5 4 5 6 6 6 6 3 2 1 2 2 2 3 3 4
6 6 8 8 8 9 10 10 11 11 10 9 9 9 9 10 11 12 12 12 12 13 13 13 13 14 15 15 14 12 11 10 10 10 10 11 12 12 12 12 12 12 11 10 10 10 10 9 9 9 8 7 6 5 5 5 6 6 6 5 4 4 3 4 4 4 4 4 5 5 5 5 6 7 6 6 6 4 3 2 2 3 3 4 4
5 5 7 8 8 9 10 10 10 9 8 8 8 8 8 10 11 12 13 13 13 14 14 14 14 14 14 14 14 13 12 12 12 11 12 12 13 14 14 14 13 13 12 11 11 11 11 11 12 11 11 10 9 10 9 9 8 8 9 9 8 7 5 4 5 5 5 5 5 5 5 6 6 6 7 6 6 6 5 4 3 3 4 4 4
5 4 6 8 8 9 10 10 9 8 8 8 8 8 9 10 12 13 13 14 15 15 15 14 14 13 14 14 15 14 14 14 14 14 13 13 14 15 15 14 13 12 12 12 12 11 11 11 12 12 13 13 12 13 13 11 11 10 10 10 10 9 8 7 7 7 6 5 5 5 6 6 6 5 6 7 7 8 7 6 4 4 4 4 5
5 4 6 7 8 10 10 10 9 9 9 9 9 9 10 12 12 13 14 15 15 15 15 14 13 13 14 14 15 14 14 14 15 15 15 15 15 15 14 13 12 12 12 12 12 12 11 11 12 13 14 15 14 14 13 13 12 11 11 11 11 11 10 10 9 8 6 6 6 6 6 6 6 5 5 6 7 8 8 7 6 5 4 4 5
4 4 6 7 9 10 10 9 9 9 10 11 11 12 12 13 13 14 14 14 14 15 14 14 13 13 13 13 14 14 14 14 14 14 15 15 15 15 14 13 13 12 12 12 12 13 12 12 12 13 14 15 14 14 13 13 13 12 12 12 12 13 12 12 11 10 9 9 8 6 5 5 5 4 4 4 4 6 7 8 7 7 6 5 5
5 5 6 8 10 11 10 9 9 10 11 12 13 13 14 14 13 13 14 14 13 13 13 13 13 13 13 13 13 14 15 15 14 14 15 16 16 15 15 13 13 13 12 12 12 12 13 12 12 13 14 14 14 14 14 14 15 14 13 12 13 14 13 13 13 13 13 12 11 9 7 6 4 3 3 3 4 4 6 7 8 8 8 7 6
6 7 7 9 11 11 10 10 10 12 12 13 14 14 14 13 13 13 13 13 13 12 12 12 13 13 14 14 14 15 16 16 15 15 15 15 15 14 13 12 12 11 12 12 12 11 11 11 11 12 13 14 14 14 14 15 15 14 13 13 14 14 14 14 14 14 14 14 14 13 11 9 7 5 3 3 4 5 6 7 8 8 9 9 8
7 8 9 11 12 11 10 11 12 13 13 13 14 14 13 13 12 12 12 12 12 12 12 12 13 14 14 14 15 15 16 15 15 15 14 13 13 13 12 11 11 10 10 10 10 9 10 10 10 11 12 13 13 13 13 14 13 13 12 12 12 12 13 13 13 13 13 13 14 14 13 12 10 7 5 4 3 4 5 6 7 8 9 10 10
8 9 11 12 12 11 11 12 12 12 13 13 12 13 12 11 11 11 11 11 11 11 12 12 13 14 14 14 15 14 14 14 14 13 13 12 12 12 11 11 10 9 10 11 10 9 10 10 10 12 12 12 13 12 11 12 11 11 11 11 11 11 11 11 11 11 11 12 12 12 13 13 11 9 7 6 4 3 3 4 6 7 8 9 11
9 10 12 13 12 11 12 12 12 11 12 12 11 11 10 10 10 10 10 9 9 10 11 12 13 13 13 14 14 13 13 13 13 12 11 10 9 10 10 10 10 9 9 10 10 9 10 10 11 11 11 11 11 11 11 11 11 11 10 10 10 10 10 10 10 10 10 10 10 11 11 12 11 10 9 8 6 4 3 2 3 4 6 7 9
10 11 12 12 12 11 11 11 11 10 10 9 9 9 9 9 9 9 9 8 9 9 11 11 12 12 12 12 12 12 12 12 11 10 9 8 7 8 9 9 8 9 9 9 10 10 10 11 11 10 10 10 10 10 11 11 11 10 9 10 10 10 10 10 10 10 9 10 10 10 10 10 10 9 9 9 8 6 4 3 2 2 4 5 5
11 12 12 12 11 11 10 10 10 9 8 7 7 7 8 8 8 8 8 8 9 9 10 11 10 10 11 11 10 9 9 9 8 8 8 7 6 7 8 8 8 9 9 10 10 10 10 11 11 11 11 11 11 11 11 11 10 10 10 10 10 10 10 10 10 10 9 9 9 9 9 8 8 8 9 9 8 6 5 4 2 2 3 4 4
11 12 12 12 11 10 10 10 9 8 7 7 6 6 7 8 8 8 8 8 9 9 9 9 9 9 9 9 8 7 7 7 7 7 6 6 7 7 8 9 9 9 9 10 10 10 10 11 11 11 11 11 11 11 11 11 11 11 11 11 10 10 10 10 10 10 10 9 9 8 8 8 7 7 8 8 7 7 6 5 4 3 4 5 5
12 12 12 12 11 10 10 9 9 8 8 7 6 6 7 8 9 8 8 8 8 8 8 7 7 8 8 8 7 6 5 5 5 5 5 6 7 8 8 8 9 10 9 10 10 11 11 11 11 11 11 11 11 11 10 11 10 10 11 11 10 10 10 10 10 10 11 10 9 8 8 8 7 7 6 6 6 6 6 6 6 6 6 6 7
12 12 11 11 10 10 9 9 9 9 8 7 7 7 8 9 9 9 8 7 7 6 7 6 6 7 7 7 6 5 5 4 4 4 5 6 6 7 7 7 9 9 9 10 10 11 12 12 13 13 13 13 12 12 11 11 11 10 11 11 12 11 11 11 10 11 11 10 10 9 7 7 7 7 6 6 5 6 6 6 6 6 7 7 7
12 12 12 11 11 10 10 10 10 9 8 7 6 6 7 8 8 8 8 7 6 6 5 5 5 6 6 6 5 4 4 4 4 4 5 5 6 6 6 8 9 9 10 10 11 12 12 13 14 15 15 15 14 14 13 13 12 11 12 12 12 13 12 12 11 11 11 11 10 10 8 7 6 6 7 7 6 6 6 6 5 6 7 7 7
13 13 13 12 11 10 10 10 10 9 8 7 6 6 7 7 7 6 6 6 5 5 4 5 5 5 6 5 5 4 4 4 4 5 5 5 6 6 8 9 10 11 11 11 12 13 13 14 15 15 16 16 15 15 15 14 14 13 13 13 13 13 12 12 12 11 11 11 11 10 9 8 7 6 6 7 7 7 7 7 6 6 7 8 8
14 14 13 13 12 11 10 10 9 8 7 6 6 6 6 6 6 5 5 4 4 4 4 4 4 5 5 5 4 4 3 3 4 4 5 6 6 7 8 10 11 12 12 13 13 14 14 14 15 15 15 16 16 15 15 14 14 14 14 14 14 13 13 12 12 11 11 11 11 9 9 9 8 6 6 6 7 7 8 9 8 8 8 9 10
14 14 14 13 12 11 10 9 8 7 6 5 5 5 5 5 4 4 4 3 3 3 3 3 3 4 4 4 4 3 3 3 3 4 5 5 6 8 9 10 11 12 13 14 15 15 15 15 16 16 16 16 16 16 15 14 14 14 14 15 14 14 14 13 12 11 11 11 11 9 9 9 8 7 6 6 6 7 8 9 9 9 9 9 10
14 14 14 13 12 10 8 7 6 6 5 5 4 4 4 3 4 3 3 3 2 2 2 1 1 2 2 2 3 3 2 2 2 3 4 5 6 8 10 11 12 13 14 15 16 16 17 17 17 17 17 17 16 16 16 15 14 14 15 15 15 14 14 14 13 12 11 11 11 10 9 9 9 8 7 7 7 7 7 8 9 10 9 9 9
13 13 13 13 11 10 8 6 5 4 4 4 4 3 3 3 3 3 3 3 2 2 1 1 1 0 0 1 2 2 2 3 3 4 4 5 7 9 11 13 14 15 16 17 17 18 18 18 18 18 18 18 17 17 16 16 15 14 15 15 15 14 14 14 13 13 12 11 11 10 9 9 9 8 8 8 8 8 8 8 8 9 10 10 9
12 13 13 12 11 9 8 6 5 4 4 3 3 3 2 2 3 3 3 3 2 2 2 2 2 1 0 1 1 1 2 2 4 5 6 8 9 11 13 15 17 18 18 19 19 19 19 19 19 19 19 19 19 17 17 16 15 14 14 15 15 14 14 13 13 14 13 12 11 10 10 9 9 9 8 9 8 8 8 8 8 8 9 9 10
11 11 11 11 10 9 8 7 5 4 3 3 3 2 2 2 2 2 2 2 3 3 3 3 2 2 1 1 2 2 3 4 6 7 10 12 14 15 16 17 18 19 20 20 21 20 20 21 20 20 21 20 20 19 18 16 16 14 14 14 14 14 14 13 13 14 14 13 12 11 10 10 9 9 9 9 9 8 8 8 8 8 8 9 9
12 11 11 10 9 9 8 7 6 5 3 3 3 2 1 1 2 2 2 2 3 3 3 2 2 2 2 2 3 4 5 7 9 11 13 15 16 17 18 18 19 20 20 21 21 21 21 21 21 21 21 22 21 21 20 18 17 15 15 14 14 14 14 14 13 14 15 15 14 12 11 10 10 10 10 9 9 9 9 9 8 8 8 9 10
12 11 11 10 10 9 8 7 6 6 5 4 4 3 2 2 2 3 3 3 3 3 3 3 3 3 3 3 4 6 7 9 12 14 16 17 18 18 18 18 19 20 21 22 22 22 21 20 20 20 21 22 22 22 21 19 18 17 16 15 14 14 14 14 14 13 14 15 16 15 13 12 12 12 11 11 11 10 10 10 9 9 9 10 11
11 11 11 11 11 10 9 8 7 6 6 6 6 5 5 4 4 4 4 5 5 4 4 4 4 4 5 5 6 7 9 11 13 15 17 18 18 18 18 19 20 21 21 22 23 23 22 21 20 20 21 22 22 22 21 21 20 19 18 17 16 15 14 14 14 14 13 13 16 17 16 15 14 13 13 13 12 11 11 12 11 10 10 11 12
11 12 12 12 11 10 9 8 8 7 8 9 8 7 7 7 6 6 6 6 6 6 6 5 5 5 6 6 7 9 10 12 15 17 18 18 18 18 19 19 20 20 20 20 21 22 22 21 21 20 20 21 22 22 21 21 21 20 19 18 18 17 16 15 15 14 14 13 14 16 17 17 16 15 15 15 14 13 12 12 13 12 11 11 12
13 13 13 13 12 11 10 9 9 9 10 10 9 9 9 9 8 8 8 8 7 7 7 7 7 7 7 7 8 10 12 14 17 18 18 18 17 18 18 19 19 19 19 19 19 20 20 20 20 20 19 19 20 21 21 21 21 20 20 20 19 19 19 18 17 16 16 16 15 15 17 19 19 18 18 18 17 16 15 14 14 14 13 13 13
15 14 14 13 13 12 12 11 11 11 11 10 10 10 10 10 10 10 10 10 10 9 9 9 9 8 9 9 9 11 13 16 18 18 17 17 17 17 18 18 18 17 17 17 17 17 18 18 19 19 19 19 19 21 21 21 20 20 21 21 21 20 20 20 20 19 18 18 17 16 16 17 19 20 21 22 21 20 19 17 16 16 16 14 13
14 13 13 13 13 13 13 12 11 11 11 10 9 10 11 11 11 11 11 12 12 12 11 11 10 10 10 10 11 12 14 16 17 16 16 16 16 17 17 16 16 15 15 14 14 14 15 16 17 17 18 18 18 19 20 20 20 20 21 21 22 22 21 21 21 21 21 20 20 19 18 18 18 19 21 23 24 25 24 23 21 20 19 17 15
14 14 14 14 14 14 14 13 13 13 12 11 10 11 11 11 12 12 13 13 14 13 13 12 11 11 11 11 12 13 15 16 15 14 14 15 14 14 15 15 15 16 16 16 16 15 15 15 16 17 17 17 17 18 19 19 19 20 20 21 22 22 22 22 22 23 23 23 23 22 22 21 20 20 21 21 23 25 26 26 25 25 24 22 20
15 15 15 15 15 15 16 16 15 15 14 13 12 12 12 12 13 14 14 14 14 14 14 12 12 12 11 12 13 14 15 14 13 13 13 13 12 13 15 16 17 18 18 19 20 20 18 18 19 20 19 19 20 19 19 19 19 19 19 20 21 22 22 23 23 24 24 25 25 25 25 24 23 23 23 23 24 25 25 26 26 26 26 26 25
16 17 18 17 16 16 17 18 18 17 16 15 14 14 14 14 15 15 15 15 15 15 14 13 12 12 12 13 13 13 14 12 11 11 11 10 11 14 15 16 19 20 20 20 21 23 22 21 21 22 22 23 23 23 21 20 19 19 19 20 21 22 22 23 24 25 25 26 26 27 27 27 27 27 27 26 27 27 26 26 26 26 26 27 27
Wind_Direction
118 117 113 110 110 112 104 98 99 97 94 92 95 100 103 106 108 115 121 126 134 141 140 127 117 108 104 99 93 87 79 76 76 74 72 70 69 69 74 81 84 82 79 79 80 79 77 73 70 71 73 69 60 60 69 73 78 80 80 80 80 81 82 82 81 78 76 76 76 71 66 62 56 52 46 45 53 64 76 88 102 117 128 142 153
113 112 111 108 109 111 104 99 100 97 95 94 94 96 98 102 107 114 121 129 136 136 129 119 115 111 108 102 98 90 85 82 78 72 71 74 77 77 82 85 85 83 80 82 84 83 77 71 69 70 71 67 62 56 61 68 73 81 82 80 80 80 81 82 84 82 78 78 79 77 75 72 65 57 51 46 46 54 72 86 93 105 116 128 141
113 112 110 109 106 105 102 100 103 99 100 106 105 103 103 104 105 111 120 127 130 125 119 117 117 116 112 109 106 98 91 83 77 75 78 85 85 83 84 84 83 84 84 86 86 84 79 74 72 70 67 65 69 63 58 61 66 77 85 87 82 81 82 82 86 84 83 85 87 83 79 76 71 67 60 51 46 47 62 83 93 101 110 120 130
107 108 108 107 103 100 97 102 111 103 103 112 112 111 107 104 106 111 116 121 123 120 118 119 120 119 118 120 114 99 86 80 80 82 89 92 88 86 85 85 83 85 86 87 85 82 79 77 76 72 64 62 69 69 60 56 59 69 83 93 93 89 86 82 84 87 92 94 93 90 83 76 70 70 70 62 52 49 53 71 92 102 110 116 122
103 106 107 106 102 101 99 104 111 107 106 111 113 112 107 104 107 110 113 118 122 123 122 122 123 124 126 125 109 89 83 84 88 91 95 95 94 91 85 82 81 83 84 83 81 80 78 74 72 69 62 62 65 64 58 50 49 57 66 76 85 93 91 83 78 82 93 98 97 93 85 77 69 66 71 71 63 56 50 56 79 98 109 115 120
104 106 107 107 105 103 106 106 106 113 112 109 112 108 104 105 107 111 115 121 127 125 122 125 126 124 126 116 95 86 89 92 94 97 99 100 101 94 84 81 81 83 82 77 74 76 78 73 68 62 55 58 60 57 58 46 36 40 46 50 59 74 86 89 77 75 86 95 95 91 87 81 74 68 66 69 71 65 54 49 61 85 101 110 117
103 106 108 107 106 104 105 105 103 114 113 105 106 104 104 107 110 113 116 122 125 121 123 124 119 115 112 95 86 89 92 93 95 97 97 99 99 93 86 85 87 85 80 75 71 70 71 70 68 64 55 49 48 48 56 56 39 33 35 33 37 40 52 81 72 66 74 79 82 84 87 85 79 76 71 66 70 72 66 56 53 71 93 102 109
100 105 108 106 106 105 103 108 109 110 107 100 100 103 106 108 108 110 113 118 117 117 118 111 104 99 91 82 81 85 86 88 90 93 94 95 93 88 89 92 91 85 79 75 74 72 69 64 63 68 64 50 43 44 47 54 47 39 35 25 24 19 14 41 57 63 66 66 75 77 76 81 85 85 81 73 68 75 80 76 61 57 84 104 107
101 102 101 99 102 106 107 114 116 110 107 102 101 104 107 108 106 106 108 110 111 108 101 94 92 84 78 77 78 80 81 81 83 86 86 87 87 85 89 93 90 84 80 75 74 74 72 66 62 69 71 55 50 51 45 48 46 44 40 24 13 2 9 42 63 81 81 70 71 74 71 72 84 86 80 78 74 74 85 93 84 64 60 101 115
107 103 99 99 105 112 116 117 110 108 109 108 106 107 112 113 106 104 104 105 103 95 92 89 84 76 74 77 77 77 75 72 72 73 78 83 85 86 90 90 86 82 76 74 75 72 69 67 64 68 72 57 45 51 52 50 45 48 43 24 2 348 38 92 85 100 114 87 74 77 82 82 77 78 73 74 79 84 91 103 105 90 47 49 121
110 108 107 107 110 113 115 113 107 109 114 114 111 111 113 108 102 101 101 100 96 89 88 86 79 74 73 76 74 73 70 68 69 67 74 83 84 88 93 86 79 76 71 70 69 65 65 67 65 67 72 61 36 32 41 49 43 41 38 26 9 10 108 101 90 91 98 87 77 70 68 82 77 72 74 73 77 99 113 120 127 122 105 330 360
112 110 110 108 106 107 109 110 112 119 122 118 111 109 107 102 102 100 98 92 86 85 85 83 77 74 73 73 71 72 72 72 75 73 70 75 80 81 81 76 72 71 63 60 59 59 64 65 63 67 73 68 46 23 12 22 36 26 23 28 22 44 110 97 94 88 87 90 75 63 51 58 65 62 71 76 77 107 128 131 145 153 166 200 25
113 106 103 102 103 108 111 113 118 124 123 114 107 105 104 103 101 95 88 83 80 81 82 81 77 75 74 74 75 77 80 81 80 76 69 65 66 59 59 63 66 67 52 51 63 66 66 63 63 64 63 59 46 34 15 2 12 16 21 38 35 58 115 99 106 90 71 148 108 73 55 51 55 56 59 71 77 92 137 144 153 153 163 189 153
112 101 93 94 100 105 109 115 119 119 114 107 104 103 102 98 92 85 82 79 78 79 81 83 80 78 78 78 82 87 88 86 81 76 69 62 60 57 56 61 66 68 60 64 77 82 80 63 64 66 59 54 41 37 47 6 355 3 16 36 42 67 121 114 120 90 60 137 182 191 103 49 49 53 55 64 71 74 115 154 159 150 147 180 180
114 100 88 89 92 95 101 107 110 109 104 102 101 99 96 89 84 82 81 79 78 80 84 86 84 83 84 83 87 93 92 86 83 78 71 65 64 63 61 64 67 72 81 91 87 94 96 70 65 62 44 42 67 63 52 34 360 357 4 9 25 59 109 127 152 127 71 96 150 193 228 261 32 38 44 53 58 70 80 124 159 157 142 128 126
115 101 89 89 89 92 97 98 99 98 98 99 98 95 90 83 82 84 83 80 80 82 87 89 89 89 88 87 87 90 89 85 83 79 74 68 64 64 63 62 64 73 82 88 89 96 95 77 64 46 23 20 60 52 4 351 348 348 5 1 357 20 51 108 182 210 213 207 201 223 279 284 300 331 360 33 43 57 82 92 154 161 150 118 97
118 107 98 96 92 92 97 99 97 96 97 99 96 91 87 82 83 84 81 80 82 86 90 92 92 90 89 89 88 86 86 85 82 78 74 68 64 62 61 57 58 67 72 76 82 89 90 79 61 42 33 38 48 23 357 345 341 336 354 358 352 359 1 350 325 257 241 255 252 252 276 291 293 290 288 295 357 29 93 112 160 163 154 129 103
119 108 103 102 96 92 99 103 101 101 102 99 93 88 85 85 85 82 80 81 85 90 93 95 93 90 90 92 91 89 87 86 81 75 69 64 61 59 58 54 54 61 66 71 75 81 84 78 65 56 52 52 45 16 356 354 356 350 352 353 348 353 350 343 338 335 322 299 283 272 268 272 282 282 278 269 250 243 191 145 175 172 159 145 124
115 107 104 102 97 97 100 103 103 103 103 98 93 91 90 88 86 84 82 84 88 92 95 96 94 92 92 93 93 91 87 82 76 70 65 63 61 60 60 57 54 58 64 67 69 74 78 77 73 68 63 57 52 44 38 36 33 24 25 29 21 11 359 355 356 352 349 333 311 299 288 277 275 273 272 265 246 235 224 192 190 181 169 161 151
108 109 107 102 97 101 104 102 99 95 92 91 92 97 99 95 91 88 85 88 92 96 98 98 96 93 91 90 88 87 83 78 74 72 70 69 68 67 65 64 62 62 66 66 64 67 70 72 71 69 64 60 54 53 54 54 54 47 40 44 47 44 42 35 31 23 17 10 347 336 324 303 288 276 268 259 250 246 239 227 213 195 181 177 173
110 115 114 106 101 107 107 101 93 83 80 84 93 103 106 102 98 93 90 93 96 99 99 97 94 90 88 86 84 82 81 78 76 76 76 74 73 73 72 72 72 71 72 70 67 64 63 65 68 68 65 62 58 55 56 56 58 54 47 50 53 51 47 42 42 40 33 30 18 7 354 331 314 294 277 265 259 254 248 244 236 221 200 194 191
121 127 122 110 109 116 111 100 90 81 81 86 97 105 108 108 105 99 97 98 99 100 99 97 93 89 86 84 84 83 82 80 78 78 79 79 76 75 74 72 71 69 69 71 73 70 66 65 67 66 64 63 60 58 58 58 61 58 52 51 53 52 44 40 42 45 39 33 28 19 8 351 335 320 295 277 270 253 244 246 248 243 227 211 206
131 133 126 116 120 125 115 102 92 86 87 91 98 105 110 113 109 104 103 102 101 101 100 99 95 90 87 85 84 82 81 81 80 80 80 79 76 75 73 71 70 69 68 71 76 79 78 73 68 65 64 65 64 62 61 61 64 62 56 51 52 53 47 42 40 39 35 31 30 26 18 7 351 339 320 295 281 251 240 249 256 258 254 240 227
143 137 127 124 129 128 119 107 98 93 91 93 98 105 112 115 111 108 106 104 103 102 101 100 98 93 88 86 85 83 82 81 82 81 82 83 80 78 76 75 76 76 79 79 77 80 84 83 81 77 71 69 67 65 65 64 64 63 59 55 52 50 47 45 42 36 31 29 29 26 23 22 16 2 339 311 289 263 251 254 259 262 264 259 251
149 139 132 131 130 127 123 116 106 98 95 96 100 108 114 115 113 111 109 106 104 103 101 100 98 94 89 86 86 86 85 84 83 82 83 85 83 81 78 76 76 79 86 86 82 81 84 86 87 82 75 71 67 63 62 61 59 59 57 54 51 48 43 38 38 36 29 26 27 24 22 24 25 24 13 337 302 279 268 263 261 261 263 262 259
149 140 136 133 131 130 129 123 114 103 98 101 106 110 115 117 118 117 115 111 108 105 101 98 94 90 89 86 83 82 83 83 83 84 83 81 81 83 80 76 75 78 82 81 79 79 78 75 67 64 66 66 63 59 58 57 55 55 52 48 47 44 40 31 28 30 26 22 24 24 20 21 26 27 30 22 345 303 279 268 263 259 257 257 255
151 144 139 134 133 134 133 129 121 110 102 102 107 112 116 119 122 120 117 112 107 104 99 95 92 88 86 85 82 79 79 80 82 85 84 78 76 80 81 77 75 74 71 69 70 68 64 60 51 50 54 53 50 49 49 53 53 51 48 44 41 39 38 32 24 24 23 18 19 24 22 20 24 26 28 36 33 3 316 281 269 265 262 259 255
154 147 141 137 137 136 133 131 126 117 106 103 107 112 117 120 120 117 113 107 100 97 94 92 90 87 83 81 81 80 78 77 77 80 81 77 74 76 78 76 72 68 66 65 64 60 53 51 50 50 49 44 42 40 35 40 42 42 41 39 39 35 33 32 26 23 23 19 16 20 22 19 21 24 26 31 36 36 21 337 294 287 285 277 265
156 151 147 143 140 137 135 132 129 122 112 107 109 113 118 120 121 118 111 104 98 93 89 86 85 83 79 77 77 79 78 76 75 75 75 75 73 74 75 73 65 58 58 54 49 49 44 41 44 44 43 39 38 34 27 28 29 30 32 32 33 32 29 26 21 21 22 20 17 17 19 16 15 20 27 31 35 38 40 35 356 321 307 299 284
159 156 153 148 142 139 137 137 135 129 120 115 116 117 120 121 121 116 106 100 95 91 88 83 80 76 72 71 71 72 74 75 74 70 66 66 65 63 64 61 54 50 49 44 38 37 36 33 33 32 29 28 27 25 19 18 17 15 19 23 23 23 25 22 13 12 18 19 16 15 16 14 9 11 19 28 36 40 45 53 44 10 340 321 311
163 159 153 147 141 139 139 141 139 136 132 130 127 122 118 117 116 110 102 98 94 90 87 82 77 74 69 66 63 63 67 70 72 69 58 51 50 47 48 48 45 44 40 36 32 28 27 26 24 22 19 17 16 13 7 7 9 3 3 9 12 12 16 19 13 6 9 14 15 14 12 8 7 6 8 14 25 35 38 42 41 25 10 351 336
168 160 152 145 142 140 140 143 142 142 141 136 132 125 118 114 112 110 106 102 96 90 83 76 72 70 68 63 57 57 62 67 73 71 51 38 37 35 36 37 36 34 27 24 23 18 16 17 16 15 14 10 5 1 357 356 359 357 352 354 358 0 5 10 11 6 4 7 10 13 11 1 1 3 359 359 6 16 21 23 21 15 9 360 351
171 161 152 147 144 143 144 147 146 147 144 136 131 126 122 118 116 116 114 110 101 92 83 74 64 62 62 57 48 43 46 53 61 60 43 33 33 30 26 25 26 25 19 15 13 9 7 8 6 5 6 5 359 353 349 346 348 348 344 345 347 351 358 360 2 4 1 3 5 6 9 360 357 357 351 350 351 354 358 3 8 3 359 356 354
171 163 155 152 150 149 150 151 149 148 141 133 128 128 131 127 124 122 120 116 104 92 84 75 64 58 55 47 40 38 38 41 44 45 42 35 30 24 18 18 18 17 13 7 3 360 0 1 358 357 357 357 354 350 347 341 339 340 339 340 342 344 349 351 355 0 357 358 1 359 359 356 355 353 344 341 342 343 339 336 343 342 342 345 349
170 165 160 157 156 155 152 151 149 145 138 130 121 123 133 135 132 129 125 116 103 91 77 68 58 50 48 41 32 31 34 34 36 40 37 31 21 13 12 14 10 7 3 357 353 351 352 353 350 349 350 349 349 348 345 340 337 337 336 337 339 338 342 345 350 356 353 353 356 353 351 348 350 352 344 336 334 335 329 322 324 326 328 331 334
172 168 164 163 162 159 154 152 149 145 139 131 121 111 117 129 137 138 127 111 99 92 75 62 52 44 45 39 28 25 31 33 36 36 28 21 13 4 4 6 2 358 353 347 344 342 343 343 340 340 342 342 342 343 342 339 337 336 334 335 337 336 339 342 345 349 349 348 347 347 346 340 341 346 344 336 330 328 323 320 322 326 327 326 326
175 172 169 168 167 164 160 156 151 148 142 133 125 112 106 112 125 133 126 116 105 96 80 63 47 41 46 43 40 40 37 32 25 23 19 12 1 351 352 356 353 349 345 341 336 333 333 335 333 333 336 335 335 336 336 336 337 335 333 334 336 336 336 337 340 342 343 341 338 340 339 333 333 337 336 331 327 325 322 322 322 324 326 325 324
178 175 173 172 172 172 170 166 157 149 143 137 131 124 119 112 115 127 131 138 144 124 106 89 45 35 45 44 48 45 29 22 12 11 10 2 350 344 345 346 344 340 338 335 329 326 327 330 330 329 328 326 328 330 330 332 334 333 332 332 334 334 333 334 335 335 335 334 332 334 334 329 327 327 325 323 323 322 322 322 322 322 324 324 324
181 178 176 176 179 180 178 176 172 158 146 145 148 142 137 125 122 129 133 149 170 189 208 200 196 255 49 58 51 28 10 7 4 3 358 351 345 339 337 336 333 329 328 326 322 321 323 324 324 323 321 321 323 326 326 326 329 331 330 329 330 330 331 333 332 329 329 328 328 330 331 328 325 321 317 317 317 318 318 318 320 322 322 322 322
183 181 181 183 186 189 188 187 187 177 162 159 167 156 138 121 123 133 142 163 185 209 229 222 202 221 272 54 45 10 356 354 355 353 345 340 338 333 331 329 326 323 322 321 318 318 318 317 316 318 318 318 319 321 320 319 323 326 324 323 324 326 328 330 328 325 325 325 326 326 328 328 326 320 314 311 310 310 311 313 315 316 316 315 315
190 189 190 193 196 198 199 198 203 203 191 184 189 170 138 123 129 153 172 185 199 207 217 219 210 210 247 313 328 326 330 336 342 341 338 336 334 330 327 326 325 324 322 320 318 317 317 316 316 317 316 316 317 317 315 315 317 318 317 317 318 320 324 324 323 320 321 323 322 324 329 329 326 323 318 312 307 306 304 303 303 302 301 303 303
202 203 203 205 207 210 209 208 213 220 220 214 217 207 164 151 156 182 207 211 208 206 204 209 217 219 238 278 306 320 329 334 337 336 334 334 331 328 327 326 326 326 326 325 323 322 321 320 320 319 317 317 317 316 314 313 313 311 311 311 310 312 315 317 317 316 318 320 319 321 327 328 328 326 322 316 309 306 301 296 293 290 288 289 289
208 208 211 213 213 215 215 214 218 225 231 235 234 227 212 202 193 195 213 222 214 206 208 213 226 243 260 280 302 317 326 331 333 333 331 330 328 328 328 329 331 332 332 330 328 327 326 325 323 321 318 317 316 315 314 312 310 307 305 304 302 303 306 308 310 311 314 314 314 318 322 324 328 327 324 321 314 309 303 297 290 285 283 283 284
217 214 214 216 218 221 223 224 228 232 239 244 242 234 227 222 213 209 215 223 220 214 216 223 234 253 272 291 306 315 324 329 330 329 328 328 329 330 332 333 333 333 333 332 330 330 330 328 325 322 319 316 315 315 316 314 310 305 302 300 298 297 297 298 301 304 307 305 306 311 315 317 321 323 323 321 316 312 305 299 293 285 281 281 281
230 227 224 224 226 229 233 238 241 242 246 249 248 241 234 230 224 222 225 228 228 226 228 232 241 256 274 291 305 315 324 327 327 328 329 331 333 334 334 333 332 332 331 330 329 329 329 328 326 323 319 316 314 315 315 312 308 303 300 298 297 295 293 292 293 295 297 296 296 301 307 309 312 315 317 316 314 311 305 301 297 292 286 282 282
233 234 235 234 235 236 238 242 245 246 247 250 251 246 240 235 232 232 235 237 236 236 241 245 252 263 275 290 304 315 324 325 326 329 332 335 336 335 332 331 331 331 330 328 328 328 326 324 322 320 317 316 315 314 312 309 305 302 299 296 295 293 291 290 289 288 289 292 294 297 302 307 310 313 313 312 312 310 306 303 299 296 292 287 286
231 233 238 242 243 243 242 241 242 243 245 248 250 247 243 241 239 239 242 245 246 246 247 251 257 266 278 293 307 316 321 323 325 329 334 337 337 334 331 330 329 330 330 328 324 321 319 318 319 319 320 319 316 312 309 307 304 300 298 296 294 292 290 289 288 288 288 290 293 295 297 302 307 309 310 310 311 311 308 306 302 297 293 289 286
237 237 241 246 250 251 249 247 243 242 243 245 246 246 246 245 244 245 247 250 253 254 255 258 264 273 285 298 308 315 320 323 325 330 337 340 337 333 329 325 325 326 325 322 317 315 315 317 319 321 323 322 318 312 307 305 303 299 296 294 293 292 291 289 289 289 288 288 290 292 293 296 299 301 304 308 310 310 310 309 306 301 296 292 289
252 250 248 249 253 256 257 254 249 246 244 242 242 245 247 248 248 248 249 253 256 260 263 268 274 282 292 301 309 318 323 325 327 334 339 338 334 327 322 322 324 325 322 319 315 312 313 315 316 316 317 319 320 316 310 304 301 299 296 293 291 290 290 289 289 288 288 288 288 289 289 291 293 294 297 299 301 302 303 305 305 304 301 298 295
263 261 258 256 255 257 259 257 254 251 248 245 242 245 248 249 250 251 253 255 258 263 267 272 280 288 296 305 315 324 325 325 330 337 338 331 325 323 325 332 335 333 328 322 315 309 307 310 314 314 314 316 318 318 314 306 299 296 294 292 289 288 288 289 289 288 287 288 288 289 290 290 290 290 291 292 293 295 297 298 300 301 301 297 294
265 267 266 262 258 256 258 258 258 257 254 250 246 246 248 250 250 253 255 257 260 264 268 274 282 290 299 309 320 325 323 325 332 334 327 321 326 331 336 341 340 335 331 326 317 308 302 305 314 320 322 324 325 324 320 311 301 294 290 289 288 287 287 287 288 288 287 287 288 288 289 290 290 289 289 289 290 291 292 292 293 294 294 293 291